TimeEST,TemperatureF,Dew PointF,Humidity,Sea Level PressureIn,VisibilityMPH,Wind Direction,Wind SpeedMPH,Gust SpeedMPH,PrecipitationIn,Events,Conditions,WindDirDegrees,DateUTC
12:21 AM,66.2,62.6,88,30.12,10.0,ENE,5.8,-,N/A,,Partly Cloudy,60,2013-01-08 05:21:00
12:53 AM,64.9,63.0,93,30.12,10.0,ENE,3.5,-,N/A,,Clear,60,2013-01-08 05:53:00
1:53 AM,64.0,63.0,96,30.12,10.0,NE,4.6,-,N/A,,Clear,50,2013-01-08 06:53:00
2:53 AM,64.9,63.0,93,30.11,10.0,ENE,6.9,-,N/A,,Partly Cloudy,60,2013-01-08 07:53:00
3:53 AM,64.0,63.0,96,30.11,10.0,ENE,5.8,-,N/A,,Clear,60,2013-01-08 08:53:00
4:53 AM,64.0,63.0,96,30.10,9.0,ENE,4.6,-,N/A,,Partly Cloudy,60,2013-01-08 09:53:00
5:16 AM,64.4,62.6,94,30.11,8.0,NNE,4.6,-,N/A,,Mostly Cloudy,30,2013-01-08 10:16:00
5:53 AM,64.9,64.0,97,30.13,5.0,NE,5.8,-,N/A,,Overcast,50,2013-01-08 10:53:00
6:02 AM,64.4,64.4,100,30.12,2.5,NE,5.8,-,N/A,,Overcast,50,2013-01-08 11:02:00
6:12 AM,64.4,64.4,100,30.12,1.0,ENE,5.8,-,N/A,,Overcast,60,2013-01-08 11:12:00
6:53 AM,64.9,64.9,100,30.14,0.5,East,5.8,-,N/A,Fog,Fog,80,2013-01-08 11:53:00
7:53 AM,66.0,64.9,96,30.16,0.5,ENE,5.8,-,N/A,Fog,Fog,70,2013-01-08 12:53:00
8:28 AM,66.2,66.2,100,30.18,1.2,NNE,4.6,-,N/A,,Overcast,30,2013-01-08 13:28:00
8:53 AM,66.9,66.9,100,30.19,1.0,ENE,5.8,-,N/A,,Overcast,60,2013-01-08 13:53:00
9:04 AM,68.0,66.2,94,30.19,2.5,ENE,4.6,-,N/A,,Overcast,70,2013-01-08 14:04:00
9:11 AM,68.0,66.2,94,30.19,5.0,East,6.9,-,N/A,,Overcast,80,2013-01-08 14:11:00
9:32 AM,69.8,68.0,94,30.20,5.0,East,5.8,-,N/A,,Overcast,80,2013-01-08 14:32:00
10:14 AM,73.4,69.8,88,30.19,10.0,East,6.9,-,N/A,,Scattered Clouds,90,2013-01-08 15:14:00
10:53 AM,77.0,69.1,76,30.19,10.0,ESE,8.1,-,N/A,,Scattered Clouds,120,2013-01-08 15:53:00
11:53 AM,81.0,66.9,62,30.17,10.0,SE,10.4,-,N/A,,Partly Cloudy,130,2013-01-08 16:53:00
12:53 PM,82.0,66.0,58,30.14,10.0,ESE,9.2,-,N/A,,Scattered Clouds,110,2013-01-08 17:53:00
1:53 PM,82.9,64.9,54,30.12,10.0,SE,8.1,-,N/A,,Partly Cloudy,140,2013-01-08 18:53:00
2:53 PM,84.0,63.0,49,30.11,10.0,SE,8.1,-,N/A,,Partly Cloudy,140,2013-01-08 19:53:00
3:53 PM,82.9,64.9,54,30.11,10.0,East,13.8,18.4,N/A,,Partly Cloudy,80,2013-01-08 20:53:00
4:53 PM,81.0,66.9,62,30.11,10.0,ENE,8.1,-,N/A,,Clear,70,2013-01-08 21:53:00
5:53 PM,75.9,69.1,79,30.12,10.0,East,6.9,-,N/A,,Scattered Clouds,90,2013-01-08 22:53:00
6:53 PM,73.9,69.1,85,30.14,10.0,East,4.6,-,N/A,,Partly Cloudy,80,2013-01-08 23:53:00
7:53 PM,73.9,69.1,85,30.14,10.0,East,5.8,-,N/A,,Mostly Cloudy,90,2013-01-09 00:53:00
8:53 PM,73.9,69.1,85,30.15,10.0,East,4.6,-,N/A,,Overcast,90,2013-01-09 01:53:00
9:53 PM,73.9,69.1,85,30.15,10.0,ESE,8.1,-,N/A,,Mostly Cloudy,110,2013-01-09 02:53:00
10:53 PM,73.0,69.1,87,30.17,10.0,East,6.9,-,N/A,,Clear,100,2013-01-09 03:53:00
11:53 PM,72.0,69.1,91,30.17,9.0,East,5.8,-,N/A,,Clear,90,2013-01-09 04:53:00